Location: Whipple Observatory
(31.6750°N, 110.9510°W)
Time: 18:38:23
(UTC-07:00)

ISS - Visible Passes

Search period start: 07 December 2021 00:00
Search period end: 17 December 2021 00:00
Orbit: 417 x 422 km, 51.6° (Epoch: 07 December)

Date Brightness Start Highest point End Pass type
(mag) Time Alt. Az. Time Alt. Az. Time Alt. Az.
07 Dec -3.9 18:37:58 10° NW 18:41:20 68° NE 18:42:24 39° ESE visible
08 Dec -3.1 17:50:45 10° NNW 17:53:54 35° NE 17:57:02 10° ESE visible
08 Dec -0.8 19:28:26 10° W 19:30:28 15° SW 19:31:55 12° SSW visible
09 Dec -1.6 18:40:15 10° WNW 18:43:12 28° SW 18:46:09 10° S visible
10 Dec -3.0 17:52:35 10° NW 17:55:55 57° SW 17:59:12 10° SSE visible
12 Dec -0.4 17:55:39 10° W 17:57:39 15° SW 17:59:39 10° SSW visible
16 Dec -1.1 06:35:49 10° S 06:38:38 25° SE 06:41:28 10° ENE visible
